Simultaneous Nadir Overpasses (SNOs) Predictions

Prediction of SNOs over PacNW region [( 10.00, 139.50) to ( 22.70, 165.60)] between AQUA and NPP Satellites:

Table of predicted SNOs over PacNW region for the next 30.0 days since TLE Epoch: 5/10/2019
Index Date (AQUA) Time (AQUA) AQUA Lat,Lon Date (NPP) Time (NPP) NPP Lat,Lon Distance(km) Time Diff (sec)
1 05/14/2019 15:10:05 22.64, 159.84 05/14/2019 15:10:56 23.21, 157.25 273.23 51
2 05/17/2019 03:31:55 22.66, 147.52 05/17/2019 03:28:26 26.93, 144.66 555.65 209
3 05/22/2019 15:59:27 22.64, 147.49 05/22/2019 16:01:44 23.26, 144.56 308.01 137
4 05/30/2019 15:09:56 22.58, 159.85 05/30/2019 15:11:04 23.17, 157.21 278.01 68
5 06/02/2019 03:31:45 22.69, 147.54 06/02/2019 03:28:15 25.90, 144.91 445.35 210




NCC Satellite Simultaneous Nadir Overpasses (SNOs) Prediction Service
